Orbital Elements at Epoch 2459000.5 (2020-May-31.0) TDB
Reference: JPL 22 (heliocentric ecliptic J2000)
Element | Value | Uncertainty (1-sigma) | Units |
e | .1671591134509618 | 6.2345e-08 | |
a | 2.863783979384762 | 2.0284e-08 | au |
q | 2.385076388275738 | 1.6935e-07 | au |
i | 2.150663749509279 | 4.7269e-06 | deg |
node | 155.5387411818746 | 0.00011742 | deg |
peri | 192.5291550337971 | 0.00011805 | deg |
M | 78.0972236179318 | 1.3137e-05 | deg |
tp | 2458616.490557230907 (2019-May-12.99055723) | 6.3253e-05 | TDB |
period | 1770.144865497264 4.85 | 1.8806e-05 5.149e-08 | d yr |
n | .203373185447661 | 2.1607e-09 | deg/d |
Q | 3.342491570493786 | 2.3674e-08 | au |
|
| | Orbit Determination Parameters
Additional Information
|